Dewpoint
47 46 46 46 45 45 45 44 44 44 44 44 43 43 42 41 42 41 39 38 35 31 30 28 29 26 23 21 19 23 29 33 35 33 31 29 27 25 24 25 27 26 25 25 26 23 19 33 34 31 34 36 36 35
48 47 46 46 45 45 44 44 44 44 44 43 43 42 42 40 41 41 38 41 40 34 31 33 32 33 31 28 26 24 25 24 33 32 33 33 30 26 25 22 27 24 26 26 24 23 26 35 34 36 36 36 36 35
48 48 47 47 45 45 45 45 45 45 46 43 43 43 42 42 42 42 40 41 39 34 30 28 27 30 32 32 32 23 28 33 32 32 30 31 31 34 26 25 25 27 28 26 26 27 28 29 35 35 36 36 38 37
48 48 48 46 45 45 45 45 46 47 45 43 42 42 43 42 41 41 38 39 38 34 26 24 28 29 30 32 31 32 31 32 32 31 27 28 28 35 33 31 28 28 29 27 27 29 31 32 34 35 36 37 36 37
48 48 47 45 45 45 46 47 45 44 43 43 43 43 43 42 41 40 39 39 40 33 26 26 30 29 29 31 31 32 31 29 27 25 26 24 30 30 31 33 29 31 29 28 27 29 29 29 32 36 36 37 37 36
48 47 45 46 46 46 46 45 45 43 43 43 43 43 41 39 38 38 33 35 38 38 29 23 29 27 27 31 27 28 28 28 27 26 24 24 28 26 23 25 30 30 33 33 30 35 34 37 37 37 37 36 35 35
47 45 46 46 45 46 44 44 44 43 43 42 42 41 39 41 38 33 31 33 39 36 30 23 23 28 31 30 29 28 28 29 27 27 25 22 21 28 26 21 22 26 34 36 37 37 36 36 36 35 34 34 34 33
46 46 46 45 46 45 44 43 44 43 42 42 39 37 40 40 39 35 38 39 39 34 30 22 22 27 31 30 27 28 26 28 28 27 26 23 22 21 19 19 20 23 36 36 34 34 36 34 33 33 34 34 34 34
47 46 46 46 46 44 43 43 42 42 41 39 36 40 39 35 32 34 40 40 39 34 27 26 24 23 35 32 33 29 27 23 26 24 23 23 21 20 20 21 21 19 35 36 34 32 32 32 33 34 34 34 34 34
46 46 46 46 45 43 42 42 41 41 41 38 33 32 31 33 37 37 37 33 32 31 31 25 30 26 33 31 31 28 29 24 22 22 25 22 20 22 24 28 32 31 33 36 33 32 31 32 33 33 34 34 35 35
47 47 46 44 43 42 42 42 41 40 37 35 31 29 34 37 36 33 28 28 30 28 30 28 30 28 31 27 28 32 28 27 22 25 23 27 29 31 33 34 34 36 36 33 32 32 33 33 33 34 34 35 35 34
47 47 45 43 43 43 42 41 40 37 36 35 34 35 35 32 30 27 26 29 27 25 31 30 29 29 30 34 30 31 29 30 23 30 27 28 31 32 32 30 31 31 34 32 33 33 33 34 34 34 33 33 34 34
47 46 45 43 43 43 42 41 38 37 37 36 30 27 27 25 17 17 13 18 20 28 30 30 26 28 29 33 31 30 27 28 34 29 29 30 32 30 32 32 32 33 34 34 32 31 31 31 29 29 29 31 31 32
47 45 44 43 44 43 42 40 37 36 32 26 18 11 20 19 18 20 20 22 27 30 27 29 28 27 29 29 31 27 32 32 27 27 27 30 31 28 29 32 32 32 32 32 32 31 28 28 27 27 26 26 25 25
45 44 44 44 44 43 41 38 36 35 30 24 21 10 13 24 27 27 28 26 25 30 30 27 28 29 27 27 29 30 28 26 27 25 30 32 32 31 28 28 30 28 29 31 29 30 26 26 25 25 26 26 26 25
45 44 43 45 44 42 39 37 34 32 27 24 23 19 23 19 21 26 25 24 28 28 27 29 26 26 26 28 26 27 27 21 26 31 32 32 31 31 31 27 25 22 23 26 26 26 25 23 22 20 20 18 25 26
40 40 45 44 42 40 38 33 30 26 24 21 20 25 25 24 22 24 25 24 28 26 21 23 21 22 25 24 26 27 24 29 33 33 33 33 31 29 26 25 24 19 21 26 28 27 26 27 21 13 11 17 22 25
40 45 44 41 38 37 32 31 27 25 24 23 21 26 25 24 23 24 24 27 26 26 24 22 26 21 19 21 23 30 32 33 32 33 32 31 32 29 29 26 22 21 29 29 28 27 27 22 16 15 15 18 20 22
43 43 42 40 38 34 30 29 28 24 25 25 24 24 24 23 25 25 25 26 27 26 26 23 20 19 20 23 23 28 29 29 27 26 27 28 29 28 29 31 29 24 27 28 23 19 17 16 14 14 15 19 20 20
43 43 40 38 36 30 26 26 26 23 21 22 20 19 21 21 23 23 23 26 25 22 22 20 20 21 22 24 26 25 26 25 24 21 20 23 28 28 28 29 29 29 28 25 22 19 16 13 14 14 15 19 21 19
39 40 39 37 34 31 29 26 25 24 22 20 20 19 17 20 21 21 22 24 22 21 20 22 22 23 24 25 25 24 21 22 20 20 22 26 27 28 27 27 29 28 23 18 15 14 16 12 10 13 13 16 20 21
39 38 36 35 31 29 27 28 25 23 20 20 20 18 16 15 18 20 21 19 19 20 22 22 23 24 24 22 19 19 19 20 21 22 23 23 22 24 25 25 26 26 23 19 15 12 8 9 11 12 13 16 19 21
37 35 33 32 27 25 22 25 23 22 19 19 17 17 15 16 16 17 14 15 16 18 22 23 23 23 22 18 18 18 20 20 20 21 22 22 24 25 25 25 25 25 24 23 18 14 11 13 13 14 15 16 18 18
34 29 26 25 25 21 22 20 21 20 19 18 17 15 14 16 15 13 12 12 17 20 20 20 21 19 16 16 15 15 17 21 21 21 21 22 23 23 23 22 23 24 24 23 20 18 16 13 14 13 14 14 15 15
20 22 24 23 27 21 19 17 17 17 15 15 16 15 15 13 13 12 11 12 13 16 17 18 18 17 13 13 14 14 18 20 18 16 16 21 23 23 21 17 16 16 19 20 18 15 14 14 13 13 13 13 13 13
19 23 22 21 21 20 18 16 15 14 14 15 15 13 12 13 12 10 11 12 15 19 19 17 16 14 15 17 15 13 12 18 20 18 16 20 23 22 21 21 21 21 16 16 15 14 13 13 13 13 14 14 17 17
19 19 24 25 21 20 18 15 14 14 13 13 13 14 12 12 12 12 14 17 19 18 20 17 14 12 11 11 13 16 17 18 19 17 18 21 21 21 21 21 20 21 20 16 15 13 11 11 12 14 14 13 13 13
19 17 18 21 19 17 15 15 14 13 13 14 17 14 12 12 12 14 17 18 16 14 14 15 16 14 13 13 15 15 15 16 17 18 19 19 19 19 20 21 21 22 19 16 15 15 14 14 13 13 14 13 13 14
23 20 19 18 18 18 17 16 14 15 16 18 16 16 16 16 16 16 17 18 16 16 15 14 14 15 16 17 17 18 17 16 17 15 14 15 16 17 20 20 20 21 21 19 19 19 16 15 15 14 14 14 14 13
20 19 16 16 15 15 15 17 16 17 18 18 17 16 16 16 16 17 16 16 15 16 16 17 17 18 18 18 18 18 17 18 18 18 17 17 17 18 19 19 18 17 17 17 16 17 20 19 18 17 17 16 15 15
19 18 17 16 14 14 15 16 16 16 14 14 13 15 16 17 17 17 17 18 18 19 19 19 19 19 20 20 19 19 18 18 18 18 19 18 18 17 16 14 14 15 15 15 14 13 13 13 13 13 13 12 11 14
19 18 17 16 14 13 11 13 11 12 11 12 13 11 11 12 12 13 13 14 15 17 18 18 18 17 17 18 19 20 21 20 17 17 17 17 17 16 13 13 13 13 12 12 11 11 12 12 12 12 12 11 10 10
14 15 12 15 15 14 12 12 11 11 10 10 10 10 11 12 12 13 11 9 13 14 13 12 10 9 9 9 11 12 14 12 12 14 15 16 17 15 12 11 11 11 11 11 11 12 12 12 12 11 10 10 10 9
Wind_Speed
21 19 15 12 8 5 1 2 1 1 3 5 9 9 11 10 7 5 2 5 2 2 10 2 4 5 8 4 3 7 3 5 5 2 2 3 4 6 4 5 7 13 9 6 8 6 10 5 4 5 3 2 5 9
21 18 15 12 9 6 3 1 3 4 2 3 5 6 6 7 7 2 1 1 1 3 7 9 14 12 7 1 2 5 1 1 3 2 3 4 3 2 8 5 4 7 11 6 12 8 7 8 3 3 5 6 3 7
22 18 15 12 10 6 4 4 6 6 3 3 7 7 6 9 10 4 1 2 2 3 6 3 1 1 3 1 5 2 3 4 4 1 3 3 5 5 5 10 9 6 9 6 3 5 9 10 8 6 5 5 6 6
21 18 14 12 10 6 3 4 5 3 2 4 7 7 8 7 8 5 2 1 1 2 2 4 3 4 4 3 1 3 2 4 3 2 1 3 4 5 5 6 4 9 10 13 9 8 7 5 11 12 8 8 9 8
22 18 16 12 8 5 2 0 5 5 4 6 8 10 8 7 6 6 5 3 2 2 1 7 11 3 2 5 4 6 8 6 2 2 4 6 4 4 5 8 17 7 8 12 11 9 12 10 13 14 14 11 8 7
22 19 16 12 9 7 8 7 7 4 3 6 8 6 8 7 3 3 2 3 5 1 2 3 3 2 0 3 3 6 6 4 3 4 5 4 3 3 7 9 6 18 9 8 11 8 6 6 8 8 11 12 8 5
22 20 16 13 11 12 9 11 6 1 5 8 8 9 5 5 6 4 3 2 2 2 1 4 6 1 1 1 1 1 2 3 4 3 4 4 4 5 7 20 15 19 17 28 9 17 8 6 7 8 10 6 4 1
22 19 17 15 15 13 11 9 5 2 5 7 7 0 6 13 10 4 5 3 3 2 2 4 5 4 3 3 3 3 2 2 4 4 3 5 2 6 10 16 25 21 16 8 5 8 8 14 11 8 6 4 3 3
21 19 18 15 14 13 11 8 4 4 8 5 1 5 2 4 3 1 4 8 7 3 3 3 6 6 1 3 2 0 1 3 4 5 5 4 6 11 18 19 20 15 8 19 6 14 11 10 8 6 5 4 2 2
21 19 18 17 17 14 10 7 4 7 8 3 1 1 3 3 0 0 2 0 2 2 2 1 1 5 2 2 3 2 4 4 4 7 4 5 8 21 17 12 11 6 10 16 9 5 6 6 7 4 3 2 1 3
21 20 19 19 18 14 10 7 5 7 8 3 3 2 2 1 1 1 1 3 2 3 1 3 4 9 3 4 5 4 3 3 3 4 7 4 4 7 8 5 6 11 11 4 4 9 8 8 6 5 3 3 3 5
21 19 20 19 17 13 10 6 6 4 2 2 1 0 1 2 3 2 2 0 2 2 2 3 5 8 5 3 4 4 4 4 7 8 4 3 5 6 6 7 6 5 5 6 6 9 8 8 6 6 4 4 6 6
20 20 20 19 17 13 10 10 8 7 5 2 3 2 1 2 5 4 5 4 5 2 2 4 10 3 4 4 6 4 4 7 1 3 2 5 11 6 3 4 3 3 5 6 5 6 6 7 6 6 6 6 6 6
23 22 20 19 16 13 12 9 6 4 3 2 1 1 1 2 2 4 4 4 5 5 10 9 5 2 2 4 4 4 5 3 3 3 5 10 13 10 3 2 1 3 5 5 4 5 5 7 7 6 7 6 6 6
25 21 19 17 16 13 11 8 4 3 2 2 1 2 4 2 2 2 2 3 3 5 7 6 5 3 4 5 4 5 4 3 7 10 10 14 15 9 8 3 3 4 5 4 4 5 5 6 5 5 6 6 5 6
25 18 5 18 18 15 11 6 4 2 3 2 1 0 0 1 2 1 3 4 2 5 6 3 2 3 4 6 4 5 8 7 8 12 13 14 12 7 5 5 3 3 4 5 5 5 6 5 3 2 4 7 7 7
11 4 20 24 20 13 8 4 2 4 2 1 1 2 2 3 5 3 3 3 1 2 2 3 1 2 7 4 4 3 0 5 10 11 10 12 11 8 5 3 2 1 3 5 6 6 3 4 3 4 7 8 7 6
4 17 27 25 14 6 3 4 3 3 1 2 2 1 2 4 3 4 2 2 1 2 2 3 3 3 4 4 4 3 3 4 6 10 13 14 9 6 4 5 3 2 1 0 1 5 4 4 2 3 4 6 5 6
16 22 23 18 7 5 3 2 3 2 2 1 2 3 4 5 5 5 4 3 3 3 1 2 5 6 8 8 8 6 6 7 13 15 15 15 12 9 9 8 6 5 7 7 7 6 4 3 3 2 3 4 5 5
22 21 17 10 6 3 3 2 2 3 3 2 2 4 4 5 3 2 1 3 5 3 5 6 11 7 9 8 3 12 15 13 13 15 16 13 11 9 12 12 13 11 10 9 9 7 5 4 3 2 2 3 3 4
11 6 8 6 4 5 3 3 1 2 2 3 2 3 5 2 4 3 2 4 7 5 9 12 16 16 10 15 11 11 14 10 14 12 17 18 12 11 13 11 11 10 11 11 11 10 8 8 6 4 4 4 3 3
4 6 4 4 3 3 3 2 1 1 1 2 3 1 5 4 3 2 3 5 7 9 10 7 7 9 10 13 12 8 10 12 11 11 15 15 15 13 13 13 11 14 14 14 13 12 10 8 6 5 5 4 3 4
9 3 4 3 4 3 2 2 1 2 4 2 1 3 4 4 3 2 5 7 9 10 13 12 12 11 12 10 7 7 5 7 11 12 13 13 13 14 14 15 12 14 16 15 13 13 12 8 8 7 5 5 4 5
5 3 4 5 4 4 2 2 1 2 2 3 3 4 4 4 2 3 8 8 11 7 9 16 11 11 5 3 4 5 6 5 9 13 11 10 13 15 10 13 12 13 13 9 9 13 12 11 9 8 8 8 7 7
5 1 3 5 5 5 5 4 4 4 6 4 3 5 4 1 4 5 16 20 16 17 17 15 14 13 7 4 8 8 6 8 9 12 15 7 9 12 13 10 11 12 8 11 13 12 13 12 12 12 11 11 11 11
6 6 9 9 8 7 10 5 9 9 5 4 8 4 1 2 3 9 10 15 10 8 14 16 17 12 11 13 13 12 13 8 8 10 16 10 9 9 12 14 15 14 12 16 15 16 17 15 15 14 15 14 13 11
7 9 6 4 5 5 4 1 2 3 5 7 5 4 4 5 9 9 7 4 6 6 7 15 13 10 14 16 16 18 17 11 15 17 11 9 12 13 14 15 17 11 6 13 16 17 17 16 16 16 16 13 13 12
7 10 13 10 5 4 4 5 7 7 7 6 4 5 6 8 7 4 6 5 9 12 11 13 14 16 19 22 20 18 19 13 15 14 15 17 20 18 18 19 20 19 12 12 13 13 14 15 14 13 13 13 11 9
5 6 8 8 4 5 10 11 9 9 8 13 10 12 13 13 14 18 22 21 15 13 19 22 22 16 20 20 18 16 15 14 15 23 27 25 18 14 13 16 14 13 13 13 12 10 11 10 10 9 9 8 7 7
8 10 6 8 9 13 12 15 14 9 9 12 9 13 19 22 20 19 20 20 22 25 25 24 24 19 25 23 24 21 12 15 17 20 21 21 15 7 5 8 9 9 9 10 10 6 6 5 3 4 5 5 6 8
9 10 4 9 10 10 10 7 9 6 5 10 11 17 29 27 27 20 24 25 24 23 20 23 25 21 19 20 19 20 20 10 19 22 21 16 13 11 9 8 6 6 8 9 8 8 8 7 7 8 8 9 9 9
10 11 9 6 7 4 3 5 4 7 7 10 18 10 11 7 14 19 11 12 19 21 26 24 21 25 11 12 13 15 19 14 12 12 11 11 11 9 6 6 6 7 8 9 9 8 8 7 7 7 8 10 10 10
3 3 3 4 4 4 2 2 3 6 6 9 15 15 12 8 12 9 3 1 9 12 10 8 10 10 9 8 8 7 4 2 2 3 4 4 5 7 7 7 8 8 8 8 8 7 7 7 7 8 9 10 11 11
Wind_Direction
168 176 176 171 162 156 136 67 8 241 26 19 15 28 21 22 35 41 356 49 62 295 289 304 26 332 326 317 302 333 330 19 352 240 249 227 230 226 218 197 175 184 194 197 208 235 264 179 128 204 206 76 108 107
170 175 173 164 160 163 179 187 255 257 331 358 15 2 9 3 0 57 31 119 332 235 273 307 290 270 244 274 346 333 354 337 35 289 7 313 287 259 206 230 172 199 196 194 194 217 240 201 247 177 167 151 154 132
170 170 165 162 162 175 214 255 277 268 265 318 349 336 350 0 4 55 191 197 203 268 307 329 56 30 90 125 195 266 28 17 64 10 341 296 271 330 242 234 202 229 183 229 222 235 219 202 185 179 161 154 156 153
165 163 162 161 167 184 227 272 307 337 126 358 355 333 334 350 8 31 347 296 272 336 299 295 277 313 255 122 177 178 106 31 64 300 318 280 277 10 289 304 266 225 177 214 238 255 267 239 208 185 156 144 138 136
160 159 162 162 162 179 217 178 106 100 50 357 346 323 342 354 348 57 80 31 29 144 292 301 318 334 127 171 175 187 208 220 205 231 209 231 242 278 259 281 256 240 209 197 220 232 227 242 224 172 157 161 156 155
158 160 159 156 160 150 132 121 103 79 0 335 333 346 342 343 26 108 140 12 14 31 100 321 303 247 133 352 251 213 203 210 207 209 239 253 245 236 266 265 238 251 296 308 221 196 180 127 111 142 149 148 141 141
160 160 157 157 149 142 137 116 112 39 342 336 335 336 357 70 79 80 84 329 1 4 104 324 337 302 146 296 309 157 185 193 198 248 240 249 271 235 260 253 285 305 325 328 211 124 121 150 153 114 123 111 89 32
160 160 157 154 146 140 131 106 93 26 331 324 332 305 98 98 111 62 25 24 21 28 57 43 306 333 12 308 283 189 178 178 225 249 260 238 240 219 254 263 245 257 320 333 127 89 130 126 118 108 97 85 66 4
161 160 159 150 140 134 116 111 88 354 347 350 39 155 83 53 58 61 58 82 72 48 66 30 358 326 16 262 256 135 229 260 233 232 235 220 228 234 236 257 254 246 261 315 288 95 111 124 124 111 104 76 79 339
160 162 158 145 135 120 112 96 39 356 347 19 321 0 51 22 302 175 222 8 27 48 88 178 262 298 322 306 269 217 182 234 246 236 190 229 251 263 243 251 267 161 256 323 252 130 128 134 143 130 105 83 12 322
161 163 153 139 128 123 115 95 33 24 56 50 9 41 265 347 89 9 4 38 4 13 205 241 247 308 286 247 275 216 248 226 262 233 194 249 275 330 350 126 129 151 185 263 61 85 86 123 133 126 93 49 24 7
162 163 149 137 128 122 116 90 45 57 91 151 151 208 318 53 57 12 6 260 49 300 287 284 303 289 288 256 254 246 249 214 254 144 225 265 351 320 332 349 29 58 111 87 86 91 92 97 107 105 84 36 16 356
163 154 145 136 134 137 129 98 86 113 116 77 65 36 352 16 56 58 341 321 312 302 259 321 326 277 305 260 258 261 244 236 300 231 266 37 335 339 319 314 333 356 58 85 81 92 99 92 77 76 67 36 10 18
154 150 147 140 140 144 126 116 103 134 104 78 74 77 20 87 173 184 204 260 280 278 308 314 274 269 276 278 270 262 257 293 269 310 29 350 337 331 358 8 350 54 88 96 84 66 69 75 77 65 56 36 25 13
146 146 143 144 141 135 123 107 93 71 89 87 77 186 197 197 210 179 227 289 271 299 310 318 291 255 265 275 262 286 258 241 53 0 320 329 324 333 342 20 80 73 87 89 95 76 55 58 58 50 47 37 29 23
137 129 135 142 134 131 125 103 52 76 60 83 83 264 257 285 246 195 223 253 270 312 309 270 327 309 277 309 292 282 340 42 339 320 320 322 326 319 334 339 24 63 86 83 68 63 52 36 28 39 87 36 26 25
124 115 148 133 127 115 85 79 76 55 96 67 326 226 188 253 254 249 199 237 176 21 322 310 313 246 304 278 267 133 105 293 313 314 318 327 326 307 293 299 324 7 75 64 43 21 6 310 324 38 29 12 17 23
91 137 132 131 123 114 65 47 91 91 162 201 241 234 237 239 258 274 260 191 135 154 153 263 313 263 229 243 265 184 249 276 279 291 303 306 295 259 239 280 255 173 259 327 298 264 269 298 335 9 5 357 4 13
142 139 137 135 133 114 109 62 50 179 219 245 272 259 253 260 258 256 242 207 136 79 318 252 244 234 241 231 267 302 313 300 310 305 298 294 283 252 222 225 231 221 236 256 257 255 256 270 286 300 345 351 352 354
128 126 122 113 89 87 92 82 63 130 206 237 257 261 266 260 295 290 277 165 164 199 215 224 226 225 224 247 285 313 310 311 313 309 301 297 302 258 242 224 228 231 238 255 256 259 265 270 255 255 287 292 314 334
84 108 86 84 74 79 74 127 158 210 199 230 263 299 279 302 261 234 221 166 205 219 234 235 242 254 262 281 288 301 305 305 297 282 285 293 299 299 277 255 244 241 232 232 241 249 243 247 254 236 255 278 283 292
111 128 107 57 91 97 106 54 353 91 212 253 289 311 278 276 255 205 122 192 230 235 216 233 251 253 271 291 303 297 296 301 298 294 298 290 285 287 275 263 245 246 244 240 232 233 233 230 216 223 239 262 273 280
109 73 67 89 107 127 164 76 147 239 247 239 306 266 242 239 215 128 245 225 248 239 229 241 258 266 267 292 306 314 292 290 308 309 304 299 293 285 279 271 247 250 262 260 234 230 225 217 219 224 238 253 261 281
71 114 153 143 141 159 121 166 190 243 258 247 218 260 248 236 152 227 255 255 248 247 227 234 236 263 269 288 297 319 315 262 291 300 298 299 305 305 296 278 269 253 246 261 249 229 221 220 219 228 233 243 248 259
113 260 124 186 157 137 187 194 206 203 241 209 225 262 240 147 249 252 265 272 257 244 241 226 229 226 221 253 283 298 276 243 280 303 306 269 275 294 296 280 274 265 246 229 235 224 224 221 224 229 233 236 247 254
194 198 189 187 169 188 196 200 205 214 200 209 230 245 161 202 249 262 257 268 280 274 236 198 203 217 239 238 262 287 299 234 224 268 288 268 247 254 278 288 291 286 221 219 229 232 235 231 233 236 242 243 244 250
200 194 192 207 174 147 174 167 156 180 202 222 225 196 199 226 239 249 276 265 277 279 217 200 197 236 262 273 266 260 260 237 238 258 273 259 256 246 245 257 268 260 240 220 224 227 236 238 239 237 242 247 240 238
212 180 188 177 182 184 189 186 191 217 231 210 159 212 226 220 245 249 233 279 265 258 252 248 240 247 258 262 265 271 276 270 270 275 279 275 259 252 241 238 241 241 236 222 226 228 231 237 239 237 232 235 240 230
194 152 128 174 162 199 216 209 224 223 199 179 218 238 248 242 258 271 277 277 267 256 266 274 277 266 265 266 266 256 251 254 272 282 283 285 291 280 241 240 240 230 218 215 225 223 222 218 219 221 225 230 241 249
190 171 174 176 194 225 226 198 236 238 209 218 235 267 272 271 267 259 263 264 264 265 264 260 262 263 267 273 279 280 247 230 227 239 263 271 272 288 295 262 249 226 203 200 202 193 209 195 195 193 202 232 245 255
150 180 206 206 239 245 241 245 261 261 250 248 235 246 261 277 289 272 256 257 258 259 259 261 264 261 250 253 253 267 280 238 234 238 242 257 267 273 274 260 223 192 189 191 192 197 197 205 217 232 248 261 265 261
178 191 199 225 252 265 279 231 251 248 264 256 262 241 263 252 266 287 270 245 244 244 248 249 253 262 266 266 267 257 256 264 249 241 243 248 255 249 216 181 167 167 169 177 188 194 200 214 227 241 264 276 277 275
135 182 228 281 282 260 267 241 280 282 259 256 264 259 249 239 259 268 312 333 249 260 274 289 288 303 300 290 291 296 278 261 227 205 217 213 192 177 171 168 173 179 182 191 196 204 226 238 257 271 273 272 275 279